GFSMW_sfc_30mbdewp_000.txt.gz
Dewpoint
29 31 34 36 36 34 35 41 44 49 51 53 56 58 58 59 59 59 58 58 57 56 56 56 56 56 55 53 54 54 53 53 53 52 51 51 51 49 48 48 48 48 47
31 33 35 39 40 41 41 39 40 45 49 53 55 57 58 58 59 59 59 59 58 58 57 56 57 57 57 56 54 54 54 54 54 52 51 49 50 51 51 50 49 49 49
34 36 38 40 43 44 43 43 42 42 47 50 54 55 56 57 57 57 58 59 59 59 59 58 58 58 58 57 57 55 54 54 55 54 52 49 47 47 48 49 50 50 50
35 37 39 40 42 44 45 44 41 41 42 47 51 53 53 54 56 56 57 58 59 59 59 59 59 59 59 59 59 58 56 55 54 55 54 52 50 47 46 47 46 45 45
34 37 39 40 43 44 42 41 42 42 43 42 43 46 52 54 55 56 55 55 56 58 59 59 59 59 60 60 59 59 58 57 56 55 54 54 53 52 50 48 49 47 46
34 37 39 41 42 43 42 41 39 39 40 43 47 48 47 47 49 51 52 53 53 54 58 59 59 60 60 60 60 60 60 59 57 56 56 55 53 52 52 50 50 49 49
34 37 39 40 41 41 41 41 41 40 40 40 40 40 42 47 51 53 53 54 54 54 55 56 59 59 60 60 61 61 61 60 59 57 56 56 55 54 52 51 50 49 49
34 37 39 40 40 41 42 41 41 41 41 41 40 40 40 40 41 42 43 47 50 52 54 56 57 58 59 59 60 61 61 60 60 59 58 57 57 56 54 52 50 49 49
34 36 39 39 40 41 41 40 40 41 41 40 41 41 41 40 40 40 41 42 42 43 44 46 49 53 56 58 57 58 59 59 59 59 59 59 58 57 56 55 54 51 48
35 37 38 39 40 40 40 40 40 40 41 41 41 41 41 42 41 41 41 41 41 40 41 41 42 44 47 50 54 56 57 57 57 58 58 58 59 58 56 55 54 53 52
36 37 38 39 39 39 39 39 39 39 40 41 41 42 42 43 43 43 43 43 43 42 42 41 41 41 42 44 46 49 52 55 56 56 57 57 57 57 56 56 55 54 53
37 38 38 38 38 39 39 38 39 39 41 42 43 43 43 43 43 43 44 44 44 44 44 43 43 43 42 42 44 45 47 49 51 53 55 54 55 56 57 56 55 54 54
37 37 36 37 36 37 41 41 41 42 43 44 44 44 44 44 44 44 44 44 44 43 43 44 44 44 44 44 44 44 45 47 49 51 52 52 54 54 54 56 56 54 54
35 35 35 34 35 35 40 42 43 43 43 43 42 42 43 42 41 41 41 41 41 41 41 41 42 42 43 44 44 44 45 48 48 50 51 52 53 53 54 54 55 55 55
35 33 34 34 35 41 43 42 42 39 36 37 38 39 40 38 38 38 38 38 38 39 39 39 39 39 41 40 44 44 44 45 46 47 48 50 51 52 53 54 54 55 55
33 33 33 35 41 42 41 39 38 36 35 35 35 36 36 36 36 36 36 37 37 37 37 37 38 38 38 40 41 43 45 45 45 46 47 48 50 51 52 53 53 54 54
32 33 39 42 40 39 38 35 33 31 32 32 32 31 29 29 30 32 31 32 31 30 33 35 36 37 37 39 40 45 44 44 44 45 46 47 49 50 51 52 53 54 53
37 39 39 38 38 36 34 29 27 26 26 26 26 25 26 26 26 26 26 26 27 28 28 30 34 35 36 37 41 42 40 40 41 43 43 46 47 49 50 51 51 52 53
38 38 37 35 33 30 26 26 25 24 22 21 19 21 22 21 22 22 22 21 22 25 24 25 27 33 33 32 35 33 34 38 39 41 41 42 44 45 48 49 49 49 52
38 35 32 30 28 25 23 21 19 16 14 12 13 15 16 17 17 17 17 16 19 19 20 19 23 28 29 29 30 32 34 33 36 37 37 40 42 43 44 46 47 47 49
33 31 29 26 22 19 16 13 9 6 8 9 10 11 12 12 12 13 14 14 13 17 17 17 19 22 23 22 27 29 32 33 32 29 32 36 40 41 42 42 44 44 48
30 25 24 21 15 10 7 6 6 8 9 10 9 10 10 10 9 10 12 12 11 12 16 16 17 20 18 23 26 28 32 33 31 30 31 34 37 39 41 42 43 45 47
23 18 15 12 7 6 6 6 6 8 9 9 9 10 11 10 10 11 11 11 11 10 13 13 16 15 15 23 25 28 31 33 32 31 32 36 38 40 41 42 42 44 41
17 14 13 9 7 7 6 6 8 9 10 10 11 11 11 12 12 13 12 11 11 12 13 14 15 18 21 22 23 28 31 32 30 32 34 38 41 42 42 42 42 41 37
12 11 9 8 7 8 8 8 10 11 11 11 11 12 13 13 13 13 13 13 14 17 20 21 21 21 21 22 28 30 31 30 30 34 35 36 36 37 38 37 34 33 35
11 9 9 9 8 9 9 10 12 12 12 12 13 13 14 14 15 14 14 16 19 22 24 24 25 23 24 25 29 30 30 31 33 31 32 34 33 34 35 33 32 32 30

GFSMW_sfc_30mbdewp_006.txt.gz
Dewpoint
38 40 42 43 44 45 43 42 43 45 53 58 58 58 58 58 58 57 56 56 55 54 54 55 55 55 55 54 54 53 52 52 53 52 52 52 52 52 52 51 50 49 48
38 39 40 41 42 42 44 43 43 44 50 55 57 58 58 59 59 59 59 58 58 57 56 55 55 55 55 55 55 54 53 53 53 52 52 50 51 52 52 52 51 51 50
38 39 40 42 42 40 40 41 43 46 47 53 56 57 58 58 57 58 58 59 60 60 59 58 57 56 56 56 56 56 54 54 55 54 53 51 49 49 49 50 52 52 51
39 41 41 41 41 41 41 41 41 41 41 46 47 49 50 50 53 54 56 55 56 58 59 59 59 59 58 57 57 57 57 56 54 56 54 54 54 51 50 51 49 50 50
39 40 41 41 42 42 42 41 41 41 41 40 41 41 41 46 48 47 45 46 49 51 53 55 58 59 59 59 58 58 58 58 57 57 56 55 55 54 53 51 51 52 50
40 40 41 41 41 41 42 42 41 41 41 41 41 41 41 41 41 41 42 43 45 47 46 46 48 54 58 59 60 60 60 60 60 59 58 57 55 54 54 53 53 52 53
39 40 39 40 40 40 40 41 41 41 41 42 42 43 43 43 42 42 42 43 43 43 43 43 43 43 44 47 52 57 60 60 59 59 58 58 58 57 56 55 54 54 54
38 39 39 40 40 40 40 40 41 41 42 43 43 44 44 44 44 44 44 44 43 44 43 43 43 43 43 43 44 46 48 51 54 56 57 56 56 56 56 56 55 52 53
37 39 39 40 39 40 39 40 42 43 44 44 44 44 45 44 44 43 44 43 43 42 42 43 43 43 44 43 43 43 44 45 46 47 50 52 53 54 55 56 55 54 50
37 39 39 39 39 40 41 43 43 43 43 43 43 43 44 43 42 42 41 41 41 41 41 41 41 42 43 43 43 43 43 43 44 45 45 47 49 50 53 55 55 54 53
37 38 39 39 40 42 43 43 42 40 39 40 41 40 42 41 41 39 39 38 38 37 37 38 39 40 41 39 39 40 40 40 42 44 43 46 48 49 50 52 52 52 52
37 38 38 41 42 42 42 40 38 36 36 38 38 37 40 37 35 33 33 34 33 33 34 36 36 35 34 36 38 39 39 40 37 38 42 45 46 47 48 49 49 49 50
38 36 38 41 42 41 40 37 35 34 34 35 34 35 33 30 28 29 29 29 29 30 30 31 30 29 31 36 34 36 38 35 37 39 42 45 46 44 44 46 47 47 48
35 35 40 42 40 38 36 33 31 30 31 30 30 31 27 26 26 26 25 25 26 26 26 26 24 27 32 28 31 36 32 37 38 43 45 43 38 39 43 44 45 46 46
34 36 41 40 38 35 32 29 27 26 26 25 27 23 23 22 22 22 21 21 22 21 23 20 20 22 28 21 33 28 29 34 40 39 33 35 36 40 43 37 36 41 43
34 41 40 37 35 33 29 26 24 23 22 22 18 16 15 15 16 16 17 17 17 17 18 18 18 23 17 23 28 28 28 35 31 27 27 33 33 39 31 31 37 40 41
39 39 37 35 33 28 26 24 22 20 14 17 11 10 11 11 12 12 13 14 13 15 14 14 16 13 15 20 24 30 26 23 25 23 24 26 33 32 27 30 34 34 37
39 37 34 32 29 25 23 20 16 11 7 9 8 10 10 10 11 11 11 11 11 11 11 12 12 13 11 18 24 28 18 14 16 24 24 29 33 30 31 32 32 33 35
37 34 31 29 25 20 17 12 7 5 5 7 9 10 11 11 11 11 11 11 10 11 11 11 11 11 12 18 26 22 18 21 23 24 25 31 32 32 32 31 32 33 35
33 31 29 25 20 14 8 5 5 5 5 7 9 10 11 11 11 11 11 11 12 12 12 12 12 12 12 17 18 20 21 22 23 25 27 31 30 30 29 30 32 34 35
31 28 25 20 14 7 6 5 6 5 7 9 10 12 12 12 12 12 12 12 13 13 14 13 13 13 15 18 21 23 24 24 25 27 28 28 28 28 30 31 34 35 36
27 23 20 14 8 7 7 6 6 8 9 10 11 12 13 13 12 13 13 14 14 14 14 14 15 18 20 22 23 24 25 26 27 28 27 27 28 31 32 31 34 34 34
21 16 14 12 9 8 8 7 8 10 10 11 12 13 13 13 13 14 14 14 14 14 15 16 19 21 22 23 24 24 26 28 26 26 28 25 29 27 28 28 30 32 32
17 14 11 8 8 9 9 9 10 11 12 12 13 13 13 14 15 15 15 14 15 16 17 20 21 22 22 24 24 25 26 25 29 28 23 26 23 23 24 26 28 30 31
16 11 9 9 9 10 10 11 11 12 13 14 14 13 14 15 15 15 15 15 16 19 21 21 21 22 24 23 25 22 23 30 24 21 24 24 22 23 25 25 27 29 30
12 9 10 10 9 11 11 11 12 14 14 14 13 14 15 15 15 15 14 17 20 21 21 21 21 20 21 23 20 21 29 25 19 20 22 22 21 23 23 24 27 27 29

GFSMW_sfc_30mbdewp_009.txt.gz
Dewpoint
39 40 41 41 41 42 44 44 45 47 53 57 57 57 57 58 58 57 56 55 54 54 53 54 54 54 54 54 54 53 53 53 53 52 52 53 53 52 53 52 52 52 51
38 40 41 41 40 40 40 41 43 47 51 56 57 58 58 58 59 59 59 59 58 57 56 55 55 55 55 55 55 54 54 53 53 52 53 51 52 52 53 53 52 52 52
38 40 40 41 41 40 40 41 41 41 45 52 55 56 56 55 53 54 54 54 56 57 59 59 58 57 57 56 56 56 55 54 55 54 53 52 50 51 51 51 52 52 52
40 40 40 41 41 41 41 41 41 41 41 42 43 45 45 45 48 49 48 47 49 49 48 50 53 56 59 58 57 57 57 56 55 56 55 54 54 52 52 53 52 51 51
39 40 41 41 41 42 41 41 42 42 42 42 42 42 42 42 43 44 43 44 44 46 45 44 44 45 49 52 55 57 58 58 57 57 57 57 55 55 53 51 51 53 53
40 40 41 41 40 41 41 42 42 42 43 43 44 43 43 43 43 43 43 43 43 44 43 43 43 43 43 43 45 46 49 53 56 57 56 55 53 53 53 53 53 53 54
39 39 40 40 40 40 40 42 42 43 44 44 44 44 44 44 43 43 42 41 41 41 42 42 42 42 43 43 44 44 45 46 47 48 50 52 53 53 53 52 51 50 51
39 39 40 40 40 40 41 42 43 43 43 44 44 44 43 43 42 42 42 41 41 41 40 41 41 41 42 43 43 43 44 44 45 45 46 47 48 50 51 51 50 47 48
38 39 39 40 39 40 42 43 42 42 42 42 42 43 42 41 40 40 40 39 38 37 37 38 38 39 40 41 41 39 40 41 42 44 45 46 45 47 49 50 51 49 46
38 39 39 39 40 42 43 41 40 39 39 39 39 40 40 38 38 37 35 35 35 35 34 34 36 37 37 34 34 37 39 39 39 41 39 39 41 45 48 49 49 49 47
38 39 39 40 42 42 41 39 37 36 36 37 36 37 34 32 31 29 29 30 30 30 30 29 30 28 28 30 35 32 33 37 36 34 37 38 41 45 46 44 45 44 46
38 38 39 41 42 41 38 36 34 33 34 33 33 31 28 25 24 25 25 25 24 25 25 24 24 21 23 27 30 26 33 30 30 34 36 39 43 43 42 39 40 43 44
38 38 41 41 41 39 36 33 31 29 30 29 30 25 22 21 22 22 22 21 21 21 20 20 19 19 20 26 23 21 30 23 25 30 34 42 37 38 34 36 42 40 35
37 38 41 41 39 36 33 30 27 26 25 26 22 17 16 17 17 18 18 18 18 16 16 17 16 16 18 18 16 24 23 24 29 33 39 31 31 33 33 37 32 29 33
35 38 41 39 37 33 30 27 24 23 21 21 14 13 14 14 14 14 14 15 15 14 14 14 13 14 14 11 18 21 24 29 21 19 22 22 25 25 32 36 33 30 32
34 39 40 37 34 31 27 25 22 18 14 14 9 11 11 12 12 12 12 12 12 12 12 12 12 13 12 15 18 23 27 22 16 14 16 23 24 24 33 33 32 33 32
36 40 37 35 33 27 24 21 17 9 6 9 9 10 11 12 12 12 12 12 12 12 11 11 12 12 12 15 19 22 23 18 18 21 23 24 24 28 33 32 32 32 31
39 38 35 32 26 23 20 15 9 5 6 7 8 10 11 11 12 12 11 12 12 11 12 12 12 13 13 16 19 21 20 21 21 22 23 24 26 29 29 29 27 29 29
38 35 32 29 23 19 13 7 5 5 6 7 9 10 11 12 12 12 12 12 12 13 13 13 13 13 13 17 19 22 22 23 23 25 25 28 27 27 26 27 27 28 28
34 31 28 24 20 12 6 5 6 5 6 8 9 11 12 12 12 12 12 13 13 13 14 14 14 15 15 17 22 23 24 24 25 30 30 27 26 25 26 26 27 31 33
32 28 25 21 13 7 6 6 6 5 8 10 11 12 13 13 12 12 13 14 14 14 15 14 15 16 19 21 22 23 24 24 29 28 25 25 26 28 24 26 28 31 31
28 24 21 14 8 8 7 6 5 8 10 11 12 13 13 13 13 13 14 15 15 15 14 15 17 19 21 22 22 24 24 26 25 24 26 27 23 22 23 23 22 23 27
23 18 16 12 8 9 9 6 8 10 11 12 12 13 14 14 14 15 15 15 15 14 15 16 19 21 21 22 23 24 26 23 23 27 26 21 21 22 21 22 23 26 27
21 16 13 8 7 9 9 9 10 11 12 12 13 14 14 15 15 15 16 15 15 15 17 20 20 21 22 22 22 27 23 22 26 30 20 18 20 21 21 22 23 25 25
17 14 10 9 8 9 10 11 11 13 12 13 14 14 14 15 16 16 15 15 16 18 20 21 21 21 21 21 21 24 21 22 31 20 18 17 20 20 19 20 22 23 24
13 10 9 9 9 10 11 11 12 13 13 13 13 14 16 16 16 15 15 17 19 20 20 20 20 20 20 20 20 20 22 26 20 18 18 18 19 19 19 20 20 23 22

GFSMW_sfc_30mbdewp_012.txt.gz
Dewpoint
40 41 40 40 40 41 41 43 47 51 55 56 56 57 57 57 58 58 58 57 56 55 54 54 54 54 54 54 54 54 54 54 54 53 53 53 53 53 53 53 53 52 52
39 40 40 40 40 40 40 41 42 45 51 56 57 57 58 58 56 54 53 54 55 56 57 56 56 56 56 56 55 55 55 55 55 53 53 52 53 53 53 53 53 53 53
38 39 40 40 41 41 41 41 41 41 42 46 49 50 50 48 47 47 46 47 47 45 45 46 48 50 54 55 56 57 56 55 55 55 54 51 51 53 54 52 53 53 53
40 40 40 40 41 41 41 42 42 42 42 43 43 43 43 43 44 45 44 43 44 44 42 42 43 43 45 44 47 48 52 54 53 55 56 56 55 51 50 53 53 52 52
39 40 40 41 41 42 42 42 43 43 44 44 44 43 43 43 43 43 41 41 42 43 42 41 42 42 43 43 44 43 44 45 47 48 51 52 51 52 50 47 47 50 53
40 40 41 40 40 41 42 43 43 44 44 44 44 44 42 41 40 40 40 40 41 41 40 40 41 41 42 43 43 44 43 44 45 46 45 45 46 47 48 47 46 47 48
40 40 39 40 40 41 42 43 43 43 44 43 43 42 42 41 40 39 39 37 37 37 37 37 38 39 40 41 42 43 42 43 44 43 43 45 45 46 47 46 44 44 46
39 39 40 40 40 42 42 42 42 41 42 42 41 40 39 38 37 36 36 35 35 36 34 35 36 37 37 38 36 37 39 40 41 41 42 44 42 43 43 44 45 42 42
39 39 39 39 41 42 42 41 39 39 39 39 39 36 34 32 31 31 32 30 31 29 30 32 31 31 30 28 30 34 34 33 37 40 39 36 38 40 42 45 46 43 38
38 39 39 40 42 42 40 38 38 37 36 36 35 32 29 28 27 26 24 25 26 26 26 25 24 24 21 24 24 33 24 28 36 26 30 33 37 39 42 46 44 41 40
38 39 39 41 42 40 37 35 35 34 32 33 30 25 21 21 22 21 22 22 22 22 22 20 21 19 19 20 21 27 20 27 28 23 26 30 34 39 39 41 36 34 38
38 39 40 42 40 37 34 32 31 30 29 30 24 19 18 18 16 17 19 19 18 18 18 17 18 16 16 17 21 18 17 25 22 25 29 32 36 30 34 35 29 34 39
38 39 41 41 39 36 32 29 27 25 26 23 16 13 13 13 13 14 15 16 16 15 14 15 15 14 14 15 14 16 20 21 23 27 24 17 24 23 23 24 26 33 33
38 39 41 40 37 33 29 26 24 22 22 15 11 11 12 11 12 13 14 14 15 14 13 13 13 12 13 13 13 18 21 23 27 21 18 16 17 20 25 23 25 33 33
37 40 41 38 34 30 27 24 21 15 16 10 9 10 12 12 12 13 13 13 14 13 13 12 12 12 13 11 18 20 22 23 22 19 19 21 23 24 25 27 28 31 31
36 40 40 37 33 28 25 22 17 8 9 9 9 11 11 12 13 13 13 12 12 12 13 12 12 12 13 16 20 22 22 22 20 21 22 22 24 24 27 27 27 27 27
35 39 38 35 30 26 23 19 10 6 7 8 8 10 11 12 13 13 12 12 12 13 12 12 13 13 14 17 20 22 22 22 22 23 23 24 25 27 28 27 26 27 26
38 39 36 32 26 23 18 12 6 6 6 6 8 10 12 12 13 12 12 12 13 13 13 13 14 14 14 18 21 23 23 23 23 24 25 26 29 27 25 26 30 31 26
38 36 33 28 23 18 10 5 5 5 6 8 9 10 12 12 13 12 12 13 13 13 13 14 14 15 15 19 22 23 22 23 24 24 26 30 26 24 25 28 26 24 28
35 31 28 23 17 9 6 5 5 5 6 9 10 11 12 13 12 12 13 13 14 14 15 14 15 16 16 19 22 22 22 23 23 27 29 24 23 24 24 21 23 25 22
31 27 24 20 12 7 6 6 6 6 9 10 12 12 12 13 13 13 14 14 14 15 15 15 15 16 18 21 22 22 22 22 27 26 21 22 27 27 20 20 22 21 22
28 24 20 14 8 8 7 6 5 9 10 11 12 12 12 13 13 14 15 15 15 15 14 14 16 18 20 21 22 21 21 23 24 21 21 26 28 19 18 21 21 21 22
25 20 17 12 8 9 9 6 8 10 11 11 11 12 13 13 14 15 15 15 15 15 15 16 18 20 20 21 22 22 24 25 21 21 29 23 19 17 19 19 19 19 20
22 17 14 9 7 9 9 9 10 11 12 11 12 12 13 15 16 16 16 16 15 15 16 19 20 20 20 21 22 24 25 23 22 29 28 20 17 17 18 18 19 19 20
19 15 10 8 8 9 9 10 11 12 12 12 13 13 14 15 16 16 16 16 16 18 19 19 20 20 21 21 21 23 20 22 23 20 17 17 17 17 17 17 18 19 19
15 11 9 8 8 10 10 11 12 13 13 13 13 13 16 16 16 16 16 17 18 19 19 19 19 19 20 20 21 19 21 24 15 14 15 19 17 17 17 18 18 18 19